• In Hungary
  • List of Countries
  • For 7 days
  • Water Temperature
  • Satellite Maps
  • Weather Map
  • News
  • Weather Widgets
  • user-avatar
    Login

    Hourly Weather Kirkby in Ashfield

    Today, 20 November, Monday

    Time Temperature Precipitation Wind Pressure Humidity
    00:00 +5°C° 0 mm 3 mps 752 mmHg 89%
    01:00 +5°C° 0.2 mm 4 mps 751 mmHg 91%
    02:00 +6°C° 0.2 mm 5 mps 751 mmHg 92%
    03:00 +6°C° 0.2 mm 5 mps 750 mmHg 94%
    04:00 +7°C° 0.2 mm 6 mps 749 mmHg 93%
    05:00 +8°C° 0.2 mm 6 mps 748 mmHg 91%
    06:00 +8°C° 0 mm 5 mps 747 mmHg 91%
    07:00 +8°C° 0.1 mm 5 mps 747 mmHg 90%
    08:00 +9°C° 0.1 mm 6 mps 747 mmHg 90%
    09:00 +9°C° 0.1 mm 6 mps 746 mmHg 89%
    10:00 +10°C° 0.1 mm 6 mps 746 mmHg 88%
    11:00 +10°C° 0.1 mm 6 mps 746 mmHg 86%
    12:00 +11°C° 0.1 mm 6 mps 746 mmHg 84%
    13:00 +11°C° 0.1 mm 6 mps 746 mmHg 83%
    14:00 +11°C° 0.1 mm 6 mps 746 mmHg 82%
    15:00 +11°C° 0.1 mm 6 mps 745 mmHg 81%
    16:00 +12°C° 0 mm 5 mps 745 mmHg 83%
    17:00 +10°C° 0 mm 5 mps 746 mmHg 86%
    18:00 +10°C° 0 mm 4 mps 746 mmHg 89%
    19:00 +10°C° 0 mm 4 mps 746 mmHg 90%
    20:00 +10°C° 0 mm 3 mps 746 mmHg 92%
    21:00 +9°C° 0 mm 3 mps 746 mmHg 94%
    22:00 +10°C° 0.2 mm 3 mps 746 mmHg 95%
    23:00 +10°C° 0.2 mm 3 mps 746 mmHg 95%

    Tomorrow, 21 November, Tuesday

    Time Temperature Precipitation Wind Pressure Humidity
    00:00 +10°C° 0.2 mm 3 mps 746 mmHg 96%
    01:00 +11°C° 0.2 mm 3 mps 745 mmHg 95%
    02:00 +11°C° 0.2 mm 4 mps 745 mmHg 94%
    03:00 +12°C° 0.2 mm 5 mps 745 mmHg 94%
    04:00 +12°C° 0 mm 5 mps 745 mmHg 93%
    05:00 +12°C° 0 mm 5 mps 744 mmHg 92%
    06:00 +12°C° 0 mm 5 mps 744 mmHg 92%
    07:00 +12°C° 0 mm 5 mps 744 mmHg 92%
    08:00 +12°C° 0 mm 5 mps 744 mmHg 91%
    09:00 +12°C° 0 mm 5 mps 744 mmHg 91%
    10:00 +11°C° 0 mm 6 mps 744 mmHg 88%
    11:00 +11°C° 0 mm 6 mps 743 mmHg 85%
    12:00 +11°C° 0 mm 7 mps 743 mmHg 82%
    13:00 +11°C° 0 mm 6 mps 742 mmHg 83%
    14:00 +11°C° 0 mm 6 mps 741 mmHg 83%
    15:00 +11°C° 0 mm 6 mps 741 mmHg 83%
    16:00 +11°C° 0 mm 7 mps 740 mmHg 83%
    17:00 +11°C° 0 mm 8 mps 740 mmHg 83%
    18:00 +11°C° 0 mm 8 mps 739 mmHg 82%
    19:00 +11°C° 0.1 mm 8 mps 739 mmHg 83%
    20:00 +11°C° 0.1 mm 8 mps 738 mmHg 83%
    21:00 +12°C° 0.1 mm 8 mps 738 mmHg 84%
    22:00 +12°C° 0.2 mm 8 mps 737 mmHg 83%
    23:00 +12°C° 0.2 mm 9 mps 737 mmHg 83%

    Day after tomorrow, 22 November, Wednesday

    Time Temperature Precipitation Wind Pressure Humidity
    00:00 +12°C° 0.2 mm 9 mps 737 mmHg 82%
    01:00 +12°C° 0.2 mm 9 mps 736 mmHg 83%
    02:00 +12°C° 0.2 mm 9 mps 735 mmHg 83%
    03:00 +11°C° 0.2 mm 9 mps 735 mmHg 83%
    04:00 +12°C° 0.3 mm 9 mps 734 mmHg 83%
    05:00 +12°C° 0.3 mm 9 mps 734 mmHg 84%
    06:00 +12°C° 0.3 mm 8 mps 733 mmHg 84%
    07:00 +12°C° 0.3 mm 8 mps 733 mmHg 84%
    08:00 +12°C° 0.3 mm 8 mps 733 mmHg 83%
    09:00 +12°C° 0.3 mm 8 mps 733 mmHg 83%
    10:00 +12°C° 0.1 mm 9 mps 732 mmHg 81%
    11:00 +12°C° 0.1 mm 10 mps 732 mmHg 79%
    12:00 +13°C° 0.1 mm 11 mps 731 mmHg 77%
    13:00 +13°C° 0.4 mm 11 mps 730 mmHg 78%
    14:00 +13°C° 0.4 mm 11 mps 730 mmHg 79%
    15:00 +12°C° 0.4 mm 11 mps 729 mmHg 80%
    16:00 +12°C° 0.1 mm 10 mps 729 mmHg 81%
    17:00 +12°C° 0.1 mm 9 mps 728 mmHg 82%
    18:00 +12°C° 0.1 mm 8 mps 728 mmHg 83%
    19:00 +12°C° 0.3 mm 8 mps 728 mmHg 83%
    20:00 +12°C° 0.3 mm 8 mps 728 mmHg 84%
    21:00 +12°C° 0.3 mm 8 mps 727 mmHg 84%
    22:00 +11°C° 0.2 mm 8 mps 727 mmHg 84%
    23:00 +11°C° 0.2 mm 7 mps 727 mmHg 85%

    23 November, Thursday

    Time Temperature Precipitation Wind Pressure Humidity
    00:00 +11°C° 0.2 mm 7 mps 727 mmHg 85%
    01:00 +11°C° 0 mm 7 mps 728 mmHg 84%
    02:00 +11°C° 0 mm 7 mps 728 mmHg 82%
    03:00 +11°C° 0 mm 8 mps 729 mmHg 81%
    04:00 +10°C° 0 mm 8 mps 730 mmHg 78%
    05:00 +7°C° 0 mm 8 mps 731 mmHg 74%
    06:00 +6°C° 0 mm 8 mps 732 mmHg 71%
    07:00 +6°C° 0 mm 8 mps 733 mmHg 71%
    08:00 +6°C° 0 mm 8 mps 734 mmHg 70%
    09:00 +6°C° 0 mm 8 mps 736 mmHg 70%
    10:00 +6°C° 0 mm 8 mps 736 mmHg 68%
    11:00 +7°C° 0 mm 9 mps 736 mmHg 66%
    12:00 +8°C° 0 mm 9 mps 737 mmHg 64%
    13:00 +9°C° 0.2 mm 8 mps 737 mmHg 68%
    14:00 +7°C° 0.2 mm 8 mps 737 mmHg 72%
    15:00 +8°C° 0.2 mm 7 mps 737 mmHg 76%
    16:00 +8°C° 0.8 mm 6 mps 737 mmHg 78%
    17:00 +7°C° 0.8 mm 6 mps 737 mmHg 80%
    18:00 +7°C° 0.8 mm 5 mps 737 mmHg 82%
    19:00 +7°C° 0 mm 5 mps 738 mmHg 81%
    20:00 +6°C° 0 mm 5 mps 739 mmHg 79%
    21:00 +6°C° 0 mm 5 mps 739 mmHg 78%
    22:00 +6°C° 0 mm 4 mps 740 mmHg 78%
    23:00 +6°C° 0 mm 4 mps 740 mmHg 79%

    24 November, Friday

    Time Temperature Precipitation Wind Pressure Humidity
    00:00 +7°C° 0 mm 3 mps 741 mmHg 79%
    01:00 +5°C° 0.1 mm 3 mps 741 mmHg 80%
    02:00 +6°C° 0.1 mm 2 mps 740 mmHg 82%
    03:00 +6°C° 0.1 mm 2 mps 740 mmHg 83%
    04:00 +7°C° 0.1 mm 1 mps 740 mmHg 83%
    05:00 +7°C° 0.1 mm 1 mps 740 mmHg 83%
    06:00 +7°C° 0.1 mm 1 mps 740 mmHg 84%
    07:00 +7°C° 0 mm 1 mps 740 mmHg 84%
    08:00 +7°C° 0 mm 1 mps 741 mmHg 84%
    09:00 +7°C° 0 mm 1 mps 741 mmHg 84%
    10:00 +6°C° 0 mm 2 mps 741 mmHg 82%
    11:00 +7°C° 0 mm 2 mps 741 mmHg 80%
    12:00 +7°C° 0 mm 2 mps 741 mmHg 77%
    13:00 +7°C° 0.4 mm 2 mps 741 mmHg 80%
    14:00 +7°C° 0.4 mm 2 mps 741 mmHg 83%
    15:00 +7°C° 0.4 mm 2 mps 740 mmHg 85%
    16:00 +7°C° 0.5 mm 2 mps 741 mmHg 87%
    17:00 +6°C° 0.5 mm 2 mps 741 mmHg 88%
    18:00 +5°C° 0.5 mm 3 mps 741 mmHg 89%
    19:00 +5°C° 0.1 mm 3 mps 742 mmHg 89%
    20:00 +4°C° 0.1 mm 4 mps 743 mmHg 88%
    21:00 +4°C° 0.1 mm 4 mps 743 mmHg 88%
    22:00 +3°C° 0 mm 4 mps 744 mmHg 85%
    23:00 +3°C° 0 mm 4 mps 744 mmHg 82%

    25 November, Saturday

    Time Temperature Precipitation Wind Pressure Humidity
    00:00 +2°C° 0 mm 3 mps 745 mmHg 80%
    01:00 +1°C° 0 mm 4 mps 745 mmHg 78%
    02:00 +1°C° 0 mm 4 mps 746 mmHg 77%
    03:00 0°C° 0 mm 4 mps 746 mmHg 76%
    04:00 0°C° 0 mm 4 mps 747 mmHg 76%
    05:00 0°C° 0 mm 4 mps 747 mmHg 76%
    06:00 0°C° 0 mm 4 mps 748 mmHg 75%
    07:00 0°C° 0 mm 4 mps 748 mmHg 75%
    08:00 0°C° 0 mm 4 mps 749 mmHg 74%
    09:00 0°C° 0 mm 4 mps 750 mmHg 73%
    10:00 +1°C° 0 mm 5 mps 750 mmHg 70%
    11:00 +2°C° 0 mm 6 mps 750 mmHg 66%
    12:00 +3°C° 0 mm 6 mps 751 mmHg 62%
    13:00 +3°C° 0 mm 6 mps 751 mmHg 63%
    14:00 +2°C° 0 mm 5 mps 751 mmHg 64%
    15:00 +2°C° 0 mm 5 mps 751 mmHg 65%
    16:00 +2°C° 0 mm 5 mps 751 mmHg 67%
    17:00 +1°C° 0 mm 5 mps 752 mmHg 68%
    18:00 0°C° 0 mm 4 mps 752 mmHg 70%
    19:00 0°C° 0 mm 5 mps 753 mmHg 71%
    20:00 0°C° 0 mm 5 mps 753 mmHg 72%
    21:00 0°C° 0 mm 5 mps 754 mmHg 74%
    22:00 0°C° 0 mm 5 mps 754 mmHg 74%
    23:00 0°C° 0 mm 5 mps 754 mmHg 75%
    Show more